nws-alerts: Checking more than four warning/county codes can delay the loading of your pages. You should use a cron job to get the data.
EllijayWeather Station Historical Data
Daily Summary for January 31, 2019 Units:  English    Metric   Both
Daily Weekly Monthly Yearly Custom
  High: Low: Average:
Temperature: 43.9 °F 17.1 °F 29.5 °F
Dew Point: 23.5 °F 14.4 °F 18.9 °F
Humidity: 91% 41% 67%
Wind Speed: 2.9mph 0.0mph 0.1mph
Wind Gust: 6.0mph - -
Wind- - West
Pressure: 30.51 in 30.40 in -
Precipitation: 0.00 in    
Historical Graphs
 
 
Tabular Data for January 31, 2019
Time Temperature Dew Point Pressure Wind Wind Speed Wind Gust Humidity Rainfall Rate (Hourly) solar
00:04 22.6 °F 15.6 °F 30.41 in Calm     74% 0.00 in meteobridge W/m2
00:09 22.6 °F 15.6 °F 30.41 in Calm     74% 0.00 in meteobridge W/m2
00:14 22.5 °F 15.4 °F 30.41 in Calm     74% 0.00 in meteobridge W/m2
00:19 22.3 °F 14.9 °F 30.41 in Calm     73% 0.00 in meteobridge W/m2
00:24 22.1 °F 15.1 °F 30.41 in Calm     74% 0.00 in meteobridge W/m2
00:29 21.9 °F 14.9 °F 30.41 in Calm     74% 0.00 in meteobridge W/m2
00:34 21.7 °F 15.3 °F 30.41 in Calm     76% 0.00 in meteobridge W/m2
00:39 21.7 °F 15.3 °F 30.41 in Calm     76% 0.00 in meteobridge W/m2
00:44 21.6 °F 15.8 °F 30.41 in Calm     78% 0.00 in meteobridge W/m2
00:49 21.6 °F 15.8 °F 30.41 in Calm     78% 0.00 in meteobridge W/m2
00:54 21.4 °F 15.6 °F 30.40 in Calm     78% 0.00 in meteobridge W/m2
00:59 21.4 °F 15.6 °F 30.41 in Calm     78% 0.00 in meteobridge W/m2
01:04 21.2 °F 15.4 °F 30.41 in Calm     78% 0.00 in meteobridge W/m2
01:09 21.0 °F 15.3 °F 30.40 in Calm     78% 0.00 in meteobridge W/m2
01:14 21.0 °F 15.3 °F 30.41 in Calm     78% 0.00 in meteobridge W/m2
01:19 21.0 °F 15.3 °F 30.40 in Calm     78% 0.00 in meteobridge W/m2
01:24 20.8 °F 15.4 °F 30.40 in Calm     79% 0.00 in meteobridge W/m2
01:29 20.8 °F 15.4 °F 30.41 in Calm     79% 0.00 in meteobridge W/m2
01:34 20.7 °F 15.3 °F 30.40 in Calm     79% 0.00 in meteobridge W/m2
01:39 20.7 °F 15.4 °F 30.40 in Calm     80% 0.00 in meteobridge W/m2
01:44 20.5 °F 15.3 °F 30.40 in Calm     80% 0.00 in meteobridge W/m2
01:49 20.5 °F 15.6 °F 30.41 in Calm     81% 0.00 in meteobridge W/m2
01:54 20.5 °F 15.6 °F 30.41 in Calm     81% 0.00 in meteobridge W/m2
01:59 20.7 °F 15.8 °F 30.41 in Calm     81% 0.00 in meteobridge W/m2
02:04 20.7 °F 15.8 °F 30.41 in Calm     81% 0.00 in meteobridge W/m2
02:09 20.8 °F 16.2 °F 30.41 in Calm     82% 0.00 in meteobridge W/m2
02:14 21.0 °F 16.2 °F 30.41 in Calm     81% 0.00 in meteobridge W/m2
02:19 21.0 °F 16.2 °F 30.41 in Calm     81% 0.00 in meteobridge W/m2
02:24 21.2 °F 16.3 °F 30.41 in Calm     81% 0.00 in meteobridge W/m2
02:29 21.4 °F 16.5 °F 30.41 in Calm     81% 0.00 in meteobridge W/m2
02:34 21.4 °F 16.2 °F 30.41 in Calm     80% 0.00 in meteobridge W/m2
02:39 21.4 °F 16.2 °F 30.41 in Calm     80% 0.00 in meteobridge W/m2
02:44 21.4 °F 16.2 °F 30.41 in Calm     80% 0.00 in meteobridge W/m2
02:49 21.4 °F 16.2 °F 30.41 in Calm     80% 0.00 in meteobridge W/m2
02:54 21.4 °F 16.2 °F 30.41 in Calm     80% 0.00 in meteobridge W/m2
02:59 21.4 °F 16.2 °F 30.41 in Calm     80% 0.00 in meteobridge W/m2
03:04 21.2 °F 16.3 °F 30.41 in Calm     81% 0.00 in meteobridge W/m2
03:09 21.0 °F 16.2 °F 30.41 in Calm     81% 0.00 in meteobridge W/m2
03:14 21.0 °F 16.2 °F 30.41 in Calm     81% 0.00 in meteobridge W/m2
03:19 21.0 °F 16.2 °F 30.41 in Calm     81% 0.00 in meteobridge W/m2
03:24 21.0 °F 16.2 °F 30.41 in Calm     81% 0.00 in meteobridge W/m2
03:29 21.0 °F 16.2 °F 30.40 in Calm     81% 0.00 in meteobridge W/m2
03:34 21.0 °F 16.2 °F 30.40 in Calm     81% 0.00 in meteobridge W/m2
03:39 21.0 °F 16.3 °F 30.41 in Calm     82% 0.00 in meteobridge W/m2
03:44 21.0 °F 16.2 °F 30.40 in Calm     81% 0.00 in meteobridge W/m2
03:49 21.0 °F 16.2 °F 30.41 in Calm     81% 0.00 in meteobridge W/m2
03:54 20.8 °F 16.0 °F 30.41 in Calm     81% 0.00 in meteobridge W/m2
03:59 20.8 °F 16.0 °F 30.41 in Calm     81% 0.00 in meteobridge W/m2
04:04 20.7 °F 15.8 °F 30.41 in Calm     81% 0.00 in meteobridge W/m2
04:09 20.7 °F 15.8 °F 30.41 in Calm     81% 0.00 in meteobridge W/m2
04:14 20.5 °F 15.8 °F 30.41 in Calm     82% 0.00 in meteobridge W/m2
04:19 20.3 °F 15.6 °F 30.41 in Calm     82% 0.00 in meteobridge W/m2
04:24 20.1 °F 15.8 °F 30.42 in Calm     83% 0.00 in meteobridge W/m2
04:29 20.1 °F 15.4 °F 30.42 in Calm     82% 0.00 in meteobridge W/m2
04:34 19.9 °F 15.6 °F 30.41 in Calm     83% 0.00 in meteobridge W/m2
04:39 19.8 °F 15.4 °F 30.41 in Calm     83% 0.00 in meteobridge W/m2
04:44 19.8 °F 15.4 °F 30.41 in Calm     83% 0.00 in meteobridge W/m2
04:48 19.8 °F 15.8 °F 30.41 in Calm     84% 0.00 in meteobridge W/m2
04:54 19.6 °F 15.6 °F 30.41 in Calm     84% 0.00 in meteobridge W/m2
04:59 19.4 °F 15.4 °F 30.41 in Calm     84% 0.00 in meteobridge W/m2
05:04 19.2 °F 15.3 °F 30.41 in Calm     84% 0.00 in meteobridge W/m2
05:09 19.0 °F 15.1 °F 30.41 in Calm     84% 0.00 in meteobridge W/m2
05:14 19.0 °F 15.3 °F 30.41 in Calm     85% 0.00 in meteobridge W/m2
05:19 18.9 °F 15.1 °F 30.41 in Calm     85% 0.00 in meteobridge W/m2
05:24 18.9 °F 15.1 °F 30.41 in Calm     85% 0.00 in meteobridge W/m2
05:29 18.7 °F 15.3 °F 30.41 in Calm     86% 0.00 in meteobridge W/m2
05:34 18.7 °F 15.3 °F 30.42 in Calm     86% 0.00 in meteobridge W/m2
05:39 18.5 °F 15.1 °F 30.42 in Calm     86% 0.00 in meteobridge W/m2
05:44 18.3 °F 14.9 °F 30.42 in Calm     86% 0.00 in meteobridge W/m2
05:49 18.3 °F 15.1 °F 30.42 in Calm     87% 0.00 in meteobridge W/m2
05:54 18.3 °F 15.1 °F 30.42 in Calm     87% 0.00 in meteobridge W/m2
05:59 18.1 °F 14.9 °F 30.42 in Calm     87% 0.00 in meteobridge W/m2
06:04 18.1 °F 14.9 °F 30.42 in Calm     87% 0.00 in meteobridge W/m2
06:09 18.0 °F 15.1 °F 30.42 in Calm     88% 0.00 in meteobridge W/m2
06:14 18.0 °F 15.1 °F 30.43 in Calm     88% 0.00 in meteobridge W/m2
06:19 18.0 °F 15.1 °F 30.43 in Calm     88% 0.00 in meteobridge W/m2
06:24 17.8 °F 14.9 °F 30.43 in Calm     88% 0.00 in meteobridge W/m2
06:29 17.8 °F 14.9 °F 30.43 in Calm     88% 0.00 in meteobridge W/m2
06:34 17.8 °F 14.9 °F 30.43 in Calm     88% 0.00 in meteobridge W/m2
06:39 17.8 °F 14.9 °F 30.44 in Calm     88% 0.00 in meteobridge W/m2
06:44 17.6 °F 14.7 °F 30.44 in Calm     88% 0.00 in meteobridge W/m2
06:49 17.4 °F 14.5 °F 30.44 in Calm     88% 0.00 in meteobridge W/m2
06:54 17.4 °F 14.7 °F 30.45 in Calm     89% 0.00 in meteobridge W/m2
06:59 17.4 °F 14.7 °F 30.45 in Calm     89% 0.00 in meteobridge W/m2
07:04 17.4 °F 14.7 °F 30.45 in Calm     89% 0.00 in meteobridge W/m2
07:09 17.2 °F 14.5 °F 30.45 in Calm     89% 0.00 in meteobridge W/m2
07:14 17.2 °F 14.5 °F 30.45 in Calm     89% 0.00 in meteobridge W/m2
07:19 17.2 °F 14.5 °F 30.46 in Calm     89% 0.00 in meteobridge W/m2
07:24 17.2 °F 14.5 °F 30.46 in Calm     89% 0.00 in meteobridge W/m2
07:29 17.2 °F 14.5 °F 30.46 in Calm     89% 0.00 in meteobridge W/m2
07:34 17.1 °F 14.4 °F 30.46 in Calm     89% 0.00 in meteobridge W/m2
07:39 17.1 °F 14.4 °F 30.46 in Calm     89% 0.00 in meteobridge W/m2
07:44 17.1 °F 14.4 °F 30.46 in Calm     89% 0.00 in meteobridge W/m2
07:49 17.1 °F 14.4 °F 30.46 in Calm     89% 0.00 in meteobridge W/m2
07:54 17.1 °F 14.7 °F 30.46 in Calm     90% 0.00 in meteobridge W/m2
07:59 17.1 °F 14.7 °F 30.47 in Calm     90% 0.00 in meteobridge W/m2
08:04 17.1 °F 14.7 °F 30.47 in Calm     90% 0.00 in meteobridge W/m2
08:09 17.2 °F 14.9 °F 30.47 in Calm     90% 0.00 in meteobridge W/m2
08:14 17.4 °F 15.3 °F 30.47 in Calm     91% 0.00 in meteobridge W/m2
08:19 17.8 °F 15.6 °F 30.47 in Calm     91% 0.00 in meteobridge W/m2
08:24 18.0 °F 15.4 °F 30.47 in Calm     90% 0.00 in meteobridge W/m2
08:29 18.1 °F 15.6 °F 30.47 in Calm     90% 0.00 in meteobridge W/m2
08:34 18.5 °F 16.0 °F 30.47 in Calm     90% 0.00 in meteobridge W/m2
08:39 18.9 °F 16.3 °F 30.47 in Calm     90% 0.00 in meteobridge W/m2
08:44 19.0 °F 16.5 °F 30.47 in Calm     90% 0.00 in meteobridge W/m2
08:49 19.4 °F 16.9 °F 30.47 in Calm     90% 0.00 in meteobridge W/m2
08:53 19.6 °F 17.1 °F 30.47 in Calm     90% 0.00 in meteobridge W/m2
08:59 19.9 °F 17.4 °F 30.47 in Calm     90% 0.00 in meteobridge W/m2
09:04 20.7 °F 18.1 °F 30.47 in Calm     90% 0.00 in meteobridge W/m2
09:09 20.8 °F 18.1 °F 30.47 in Calm     89% 0.00 in meteobridge W/m2
09:14 21.4 °F 18.3 °F 30.48 in Calm     88% 0.00 in meteobridge W/m2
09:19 21.7 °F 18.5 °F 30.48 in Calm     87% 0.00 in meteobridge W/m2
09:24 22.5 °F 19.4 °F 30.48 in Calm     88% 0.00 in meteobridge W/m2
09:29 23.2 °F 19.9 °F 30.48 in Calm     87% 0.00 in meteobridge W/m2
09:34 23.7 °F 19.0 °F 30.48 in Calm     82% 0.00 in meteobridge W/m2
09:39 25.2 °F 20.1 °F 30.48 in Calm     81% 0.00 in meteobridge W/m2
09:44 26.1 °F 20.1 °F 30.49 in Calm     78% 0.00 in meteobridge W/m2
09:49 27.0 °F 20.1 °F 30.49 in Calm     75% 0.00 in meteobridge W/m2
09:54 27.7 °F 20.5 °F 30.49 in Calm     74% 0.00 in meteobridge W/m2
09:59 28.4 °F 20.5 °F 30.49 in Calm     72% 0.00 in meteobridge W/m2
10:04 29.1 °F 20.5 °F 30.49 in Calm     70% 0.00 in meteobridge W/m2
10:09 29.8 °F 20.8 °F 30.49 in Calm     69% 0.00 in meteobridge W/m2
10:14 30.7 °F 21.0 °F 30.50 in Calm     67% 0.00 in meteobridge W/m2
10:19 31.8 °F 20.3 °F 30.50 in Calm   3.0 mph 62% 0.00 in meteobridge W/m2
10:24 32.4 °F 19.9 °F 30.50 in Calm     60% 0.00 in meteobridge W/m2
10:29 32.7 °F 19.9 °F 30.50 in Calm     59% 0.00 in meteobridge W/m2
10:34 33.1 °F 19.6 °F 30.50 in Calm   3.0 mph 57% 0.00 in meteobridge W/m2
10:39 33.6 °F 19.9 °F 30.50 in Calm   1.0 mph 57% 0.00 in meteobridge W/m2
10:44 34.0 °F 19.9 °F 30.51 in Calm     56% 0.00 in meteobridge W/m2
10:49 34.2 °F 19.8 °F 30.51 in Calm     55% 0.00 in meteobridge W/m2
10:54 34.5 °F 19.6 °F 30.51 in Calm   1.0 mph 54% 0.00 in meteobridge W/m2
10:59 34.9 °F 19.9 °F 30.50 in Calm     54% 0.00 in meteobridge W/m2
11:04 35.2 °F 19.8 °F 30.51 in Calm   2.0 mph 53% 0.00 in meteobridge W/m2
11:09 35.4 °F 19.9 °F 30.51 in Calm     53% 0.00 in meteobridge W/m2
11:14 35.8 °F 19.4 °F 30.50 in Calm     51% 0.00 in meteobridge W/m2
11:19 36.1 °F 19.8 °F 30.51 in Calm     51% 0.00 in meteobridge W/m2
11:24 36.5 °F 19.2 °F 30.50 in NNW 0.9 mph 5.0 mph 49% 0.00 in meteobridge W/m2
11:29 36.9 °F 19.0 °F 30.51 in West 2.9 mph 5.0 mph 48% 0.00 in meteobridge W/m2
11:34 36.9 °F 18.5 °F 30.51 in Calm   3.0 mph 47% 0.00 in meteobridge W/m2
11:39 37.0 °F 19.2 °F 30.51 in Calm     48% 0.00 in meteobridge W/m2
11:44 37.6 °F 19.6 °F 30.51 in Calm     48% 0.00 in meteobridge W/m2
11:49 38.1 °F 19.6 °F 30.51 in Calm   2.0 mph 47% 0.00 in meteobridge W/m2
11:54 38.7 °F 19.2 °F 30.51 in Calm   2.0 mph 45% 0.00 in meteobridge W/m2
11:59 38.8 °F 19.4 °F 30.51 in NW 2.9 mph 5.0 mph 45% 0.00 in meteobridge W/m2
12:04 39.0 °F 19.9 °F 30.51 in Calm     46% 0.00 in meteobridge W/m2
12:09 39.6 °F 19.9 °F 30.50 in Calm   1.0 mph 45% 0.00 in meteobridge W/m2
12:14 39.7 °F 19.6 °F 30.50 in NW 0.9 mph 3.0 mph 44% 0.00 in meteobridge W/m2
12:19 39.7 °F 20.7 °F 30.50 in NW 0.9 mph 3.0 mph 46% 0.00 in meteobridge W/m2
12:24 39.9 °F 19.8 °F 30.49 in Calm   6.0 mph 44% 0.00 in meteobridge W/m2
12:29 40.3 °F 20.1 °F 30.49 in Calm   2.0 mph 44% 0.00 in meteobridge W/m2
12:34 40.5 °F 19.8 °F 30.49 in Calm   3.0 mph 43% 0.00 in meteobridge W/m2
12:39 40.6 °F 20.5 °F 30.49 in Calm   1.0 mph 44% 0.00 in meteobridge W/m2
12:44 40.8 °F 20.1 °F 30.48 in Calm   3.0 mph 43% 0.00 in meteobridge W/m2
12:49 41.0 °F 20.8 °F 30.48 in NE 0.9 mph 1.0 mph 44% 0.00 in meteobridge W/m2
12:54 41.4 °F 20.5 °F 30.48 in WNW 2.0 mph 5.0 mph 43% 0.00 in meteobridge W/m2
12:59 41.4 °F 21.0 °F 30.47 in Calm     44% 0.00 in meteobridge W/m2
13:04 41.7 °F 21.9 °F 30.47 in ENE 0.9 mph 3.0 mph 45% 0.00 in meteobridge W/m2
13:09 41.7 °F 21.4 °F 30.47 in Calm   1.0 mph 44% 0.00 in meteobridge W/m2
13:14 41.9 °F 21.6 °F 30.46 in Calm   5.0 mph 44% 0.00 in meteobridge W/m2
13:19 42.1 °F 21.7 °F 30.46 in Calm   2.0 mph 44% 0.00 in meteobridge W/m2
13:24 42.1 °F 21.7 °F 30.46 in Calm   2.0 mph 44% 0.00 in meteobridge W/m2
13:29 42.1 °F 21.7 °F 30.46 in Calm   4.0 mph 44% 0.00 in meteobridge W/m2
13:34 42.3 °F 21.4 °F 30.46 in SSW 0.9 mph 2.0 mph 43% 0.00 in meteobridge W/m2
13:39 42.3 °F 21.4 °F 30.46 in Calm     43% 0.00 in meteobridge W/m2
13:44 42.3 °F 21.4 °F 30.46 in WNW 2.9 mph 3.0 mph 43% 0.00 in meteobridge W/m2
13:49 42.3 °F 22.5 °F 30.45 in Calm     45% 0.00 in meteobridge W/m2
13:54 42.4 °F 21.6 °F 30.45 in WNW 0.9 mph 3.0 mph 43% 0.00 in meteobridge W/m2
13:59 42.6 °F 22.8 °F 30.45 in Calm   1.0 mph 45% 0.00 in meteobridge W/m2
14:04 42.6 °F 22.3 °F 30.45 in Calm     44% 0.00 in meteobridge W/m2
14:09 43.0 °F 22.1 °F 30.45 in Calm   2.0 mph 43% 0.00 in meteobridge W/m2
14:14 43.3 °F 22.3 °F 30.45 in Calm     43% 0.00 in meteobridge W/m2
14:19 43.5 °F 22.5 °F 30.45 in NNW 0.9 mph 1.0 mph 43% 0.00 in meteobridge W/m2
14:24 43.5 °F 22.5 °F 30.45 in Calm     43% 0.00 in meteobridge W/m2
14:29 43.5 °F 23.0 °F 30.45 in Calm   2.0 mph 44% 0.00 in meteobridge W/m2
14:34 43.5 °F 21.9 °F 30.45 in Calm     42% 0.00 in meteobridge W/m2
14:39 43.5 °F 21.9 °F 30.45 in Calm   1.0 mph 42% 0.00 in meteobridge W/m2
14:44 43.9 °F 22.8 °F 30.44 in Calm     43% 0.00 in meteobridge W/m2
14:49 43.7 °F 22.6 °F 30.44 in NW 0.9 mph 1.0 mph 43% 0.00 in meteobridge W/m2
14:54 43.5 °F 21.4 °F 30.44 in Calm     41% 0.00 in meteobridge W/m2
14:59 43.5 °F 21.9 °F 30.44 in NW 0.9 mph 1.0 mph 42% 0.00 in meteobridge W/m2
15:04 43.5 °F 21.9 °F 30.44 in Calm   1.0 mph 42% 0.00 in meteobridge W/m2
15:09 43.5 °F 21.9 °F 30.44 in Calm   1.0 mph 42% 0.00 in meteobridge W/m2
15:14 43.5 °F 22.5 °F 30.44 in Calm     43% 0.00 in meteobridge W/m2
15:19 43.7 °F 21.6 °F 30.44 in NE 0.9 mph 2.0 mph 41% 0.00 in meteobridge W/m2
15:24 43.5 °F 21.9 °F 30.44 in Calm     42% 0.00 in meteobridge W/m2
15:29 43.5 °F 21.4 °F 30.44 in Calm     41% 0.00 in meteobridge W/m2
15:34 43.3 °F 22.3 °F 30.44 in Calm   1.0 mph 43% 0.00 in meteobridge W/m2
15:39 43.2 °F 21.0 °F 30.44 in NW 2.0 mph 2.0 mph 41% 0.00 in meteobridge W/m2
15:44 43.2 °F 22.6 °F 30.44 in Calm     44% 0.00 in meteobridge W/m2
15:49 43.2 °F 22.1 °F 30.44 in Calm     43% 0.00 in meteobridge W/m2
15:54 43.2 °F 21.6 °F 30.43 in Calm     42% 0.00 in meteobridge W/m2
15:59 43.0 °F 21.4 °F 30.43 in Calm   5.0 mph 42% 0.00 in meteobridge W/m2
16:04 43.0 °F 21.4 °F 30.43 in Calm     42% 0.00 in meteobridge W/m2
16:09 43.0 °F 20.8 °F 30.43 in Calm   3.0 mph 41% 0.00 in meteobridge W/m2
16:14 42.8 °F 21.9 °F 30.43 in Calm     43% 0.00 in meteobridge W/m2
16:19 42.8 °F 21.9 °F 30.43 in Calm     43% 0.00 in meteobridge W/m2
16:24 42.8 °F 21.9 °F 30.43 in Calm     43% 0.00 in meteobridge W/m2
16:29 42.6 °F 22.8 °F 30.43 in Calm     45% 0.00 in meteobridge W/m2
16:34 42.4 °F 21.6 °F 30.43 in NNW 0.9 mph 2.0 mph 43% 0.00 in meteobridge W/m2
16:39 42.3 °F 21.4 °F 30.43 in Calm     43% 0.00 in meteobridge W/m2
16:44 42.3 °F 21.4 °F 30.43 in Calm     43% 0.00 in meteobridge W/m2
16:49 42.1 °F 22.3 °F 30.44 in Calm     45% 0.00 in meteobridge W/m2
16:54 41.7 °F 23.5 °F 30.44 in Calm   1.0 mph 48% 0.00 in meteobridge W/m2
16:59 41.7 °F 21.9 °F 30.44 in Calm     45% 0.00 in meteobridge W/m2
17:04 41.7 °F 21.4 °F 30.43 in Calm     44% 0.00 in meteobridge W/m2
17:09 41.5 °F 21.7 °F 30.43 in Calm     45% 0.00 in meteobridge W/m2
17:14 41.4 °F 21.6 °F 30.43 in Calm     45% 0.00 in meteobridge W/m2
17:19 41.0 °F 20.8 °F 30.43 in Calm     44% 0.00 in meteobridge W/m2
17:24 40.6 °F 21.6 °F 30.43 in Calm     46% 0.00 in meteobridge W/m2
17:29 40.5 °F 22.3 °F 30.43 in Calm     48% 0.00 in meteobridge W/m2
17:34 39.9 °F 20.8 °F 30.43 in Calm     46% 0.00 in meteobridge W/m2
17:39 39.7 °F 21.2 °F 30.43 in Calm     47% 0.00 in meteobridge W/m2
17:44 39.4 °F 21.7 °F 30.43 in Calm     49% 0.00 in meteobridge W/m2
17:49 39.0 °F 20.5 °F 30.43 in Calm     47% 0.00 in meteobridge W/m2
17:54 38.7 °F 20.1 °F 30.42 in Calm     47% 0.00 in meteobridge W/m2
17:59 38.5 °F 21.0 °F 30.42 in Calm     49% 0.00 in meteobridge W/m2
18:04 38.1 °F 20.7 °F 30.42 in Calm     49% 0.00 in meteobridge W/m2
18:09 37.8 °F 20.8 °F 30.42 in Calm     50% 0.00 in meteobridge W/m2
18:14 37.4 °F 20.5 °F 30.42 in Calm     50% 0.00 in meteobridge W/m2
18:19 37.0 °F 20.7 °F 30.42 in Calm     51% 0.00 in meteobridge W/m2
18:24 36.3 °F 19.9 °F 30.42 in Calm     51% 0.00 in meteobridge W/m2
18:29 36.1 °F 20.3 °F 30.42 in Calm     52% 0.00 in meteobridge W/m2
18:34 35.8 °F 19.9 °F 30.42 in Calm     52% 0.00 in meteobridge W/m2
18:39 35.2 °F 20.3 °F 30.42 in Calm     54% 0.00 in meteobridge W/m2
18:44 34.7 °F 20.1 °F 30.42 in Calm     55% 0.00 in meteobridge W/m2
18:49 34.2 °F 20.1 °F 30.43 in Calm     56% 0.00 in meteobridge W/m2
18:54 33.6 °F 19.9 °F 30.43 in Calm     57% 0.00 in meteobridge W/m2
18:59 33.3 °F 19.8 °F 30.42 in Calm     57% 0.00 in meteobridge W/m2
19:04 32.9 °F 19.8 °F 30.42 in Calm     58% 0.00 in meteobridge W/m2
19:09 32.5 °F 19.8 °F 30.42 in Calm     59% 0.00 in meteobridge W/m2
19:14 32.4 °F 20.5 °F 30.43 in Calm     61% 0.00 in meteobridge W/m2
19:19 31.8 °F 19.6 °F 30.43 in Calm     60% 0.00 in meteobridge W/m2
19:24 31.6 °F 20.1 °F 30.43 in Calm     62% 0.00 in meteobridge W/m2
19:29 31.5 °F 20.3 °F 30.43 in Calm     63% 0.00 in meteobridge W/m2
19:34 31.5 °F 21.0 °F 30.43 in Calm     65% 0.00 in meteobridge W/m2
19:39 31.3 °F 21.2 °F 30.43 in Calm     66% 0.00 in meteobridge W/m2
19:44 31.5 °F 21.4 °F 30.43 in Calm     66% 0.00 in meteobridge W/m2
19:49 31.3 °F 20.8 °F 30.44 in Calm     65% 0.00 in meteobridge W/m2
19:54 31.5 °F 21.4 °F 30.44 in Calm     66% 0.00 in meteobridge W/m2
19:59 31.5 °F 21.0 °F 30.44 in Calm     65% 0.00 in meteobridge W/m2
20:04 31.5 °F 21.7 °F 30.44 in Calm     67% 0.00 in meteobridge W/m2
20:09 31.5 °F 21.4 °F 30.44 in Calm     66% 0.00 in meteobridge W/m2
20:14 31.5 °F 21.7 °F 30.43 in Calm     67% 0.00 in meteobridge W/m2
20:19 31.6 °F 21.6 °F 30.44 in Calm     66% 0.00 in meteobridge W/m2
20:24 31.6 °F 21.6 °F 30.44 in Calm     66% 0.00 in meteobridge W/m2
20:29 31.6 °F 21.6 °F 30.44 in Calm     66% 0.00 in meteobridge W/m2
20:34 31.5 °F 22.1 °F 30.44 in Calm     68% 0.00 in meteobridge W/m2
20:39 31.5 °F 21.4 °F 30.43 in Calm     66% 0.00 in meteobridge W/m2
20:44 31.3 °F 21.6 °F 30.43 in Calm     67% 0.00 in meteobridge W/m2
20:49 31.3 °F 21.9 °F 30.43 in Calm     68% 0.00 in meteobridge W/m2
20:54 31.1 °F 21.7 °F 30.43 in Calm     68% 0.00 in meteobridge W/m2
20:59 30.9 °F 21.2 °F 30.43 in Calm     67% 0.00 in meteobridge W/m2
21:04 30.7 °F 22.1 °F 30.43 in Calm     70% 0.00 in meteobridge W/m2
21:09 30.6 °F 21.6 °F 30.43 in Calm     69% 0.00 in meteobridge W/m2
21:14 30.4 °F 21.4 °F 30.43 in Calm     69% 0.00 in meteobridge W/m2
21:19 30.4 °F 21.7 °F 30.44 in Calm     70% 0.00 in meteobridge W/m2
21:24 30.2 °F 21.9 °F 30.44 in Calm     71% 0.00 in meteobridge W/m2
21:29 30.2 °F 21.9 °F 30.44 in Calm     71% 0.00 in meteobridge W/m2
21:34 30.4 °F 22.8 °F 30.44 in Calm     73% 0.00 in meteobridge W/m2
21:39 30.4 °F 22.5 °F 30.44 in Calm     72% 0.00 in meteobridge W/m2
21:44 30.4 °F 21.7 °F 30.44 in Calm     70% 0.00 in meteobridge W/m2
21:48 30.4 °F 21.7 °F 30.44 in Calm     70% 0.00 in meteobridge W/m2
21:54 30.2 °F 21.6 °F 30.44 in Calm     70% 0.00 in meteobridge W/m2
21:59 30.0 °F 21.7 °F 30.44 in Calm     71% 0.00 in meteobridge W/m2
22:04 29.8 °F 21.6 °F 30.44 in Calm     71% 0.00 in meteobridge W/m2
22:09 29.7 °F 21.7 °F 30.44 in Calm     72% 0.00 in meteobridge W/m2
22:14 29.5 °F 21.2 °F 30.44 in Calm     71% 0.00 in meteobridge W/m2
22:19 29.3 °F 21.4 °F 30.44 in Calm     72% 0.00 in meteobridge W/m2
22:24 28.9 °F 21.0 °F 30.44 in Calm     72% 0.00 in meteobridge W/m2
22:29 28.8 °F 21.2 °F 30.44 in Calm     73% 0.00 in meteobridge W/m2
22:34 28.8 °F 20.8 °F 30.44 in Calm     72% 0.00 in meteobridge W/m2
22:39 28.6 °F 21.0 °F 30.44 in Calm     73% 0.00 in meteobridge W/m2
22:44 28.2 °F 20.7 °F 30.44 in Calm     73% 0.00 in meteobridge W/m2
22:49 28.0 °F 20.8 °F 30.44 in Calm     74% 0.00 in meteobridge W/m2
22:54 28.0 °F 20.8 °F 30.44 in Calm     74% 0.00 in meteobridge W/m2
22:59 27.9 °F 21.0 °F 30.43 in Calm     75% 0.00 in meteobridge W/m2
23:04 27.9 °F 21.0 °F 30.43 in Calm     75% 0.00 in meteobridge W/m2
23:09 27.9 °F 21.2 °F 30.44 in Calm     76% 0.00 in meteobridge W/m2
23:14 27.7 °F 21.0 °F 30.43 in Calm     76% 0.00 in meteobridge W/m2
23:19 27.7 °F 21.0 °F 30.44 in Calm     76% 0.00 in meteobridge W/m2
23:24 27.7 °F 21.4 °F 30.44 in Calm     77% 0.00 in meteobridge W/m2
23:29 27.5 °F 21.2 °F 30.44 in Calm     77% 0.00 in meteobridge W/m2
23:34 27.5 °F 21.2 °F 30.43 in Calm     77% 0.00 in meteobridge W/m2
23:39 27.5 °F 21.2 °F 30.43 in Calm     77% 0.00 in meteobridge W/m2
23:44 27.5 °F 21.2 °F 30.43 in Calm     77% 0.00 in meteobridge W/m2
23:49 27.3 °F 21.4 °F 30.43 in Calm     78% 0.00 in meteobridge W/m2
23:54 27.3 °F 21.7 °F 30.43 in Calm     79% 0.00 in meteobridge W/m2
23:59 27.3 °F 21.7 °F 30.43 in Calm     79% 0.00 in meteobridge W/m2
EllijayWeather
Compliments of Weather Underground - 2.5 mb